Wind_Speed
5 5 5 4 5 5 4 4 4 4 3 3 3 3 3 3 3 2 2 2 2 3 4 5 5 4 3 3 3 3 3 4 4 4 4 4 4 5 5 4 4 5 6
6 5 5 5 5 6 5 5 4 4 4 3 3 3 3 3 3 3 2 3 3 4 4 5 6 6 5 5 4 5 5 4 4 4 5 5 5 5 6 6 6 6 6
6 6 6 5 5 6 6 5 5 5 4 4 4 4 4 4 4 4 4 4 4 5 5 5 6 6 5 6 5 5 6 5 5 5 5 5 6 7 7 7 7 7 7
6 6 6 6 6 6 6 6 6 6 5 5 5 6 5 6 5 5 5 5 5 6 6 6 6 5 6 6 6 5 6 6 6 6 6 6 6 7 7 8 8 8 8
6 6 6 7 7 7 7 7 7 7 7 7 6 6 6 6 6 6 6 7 7 7 6 6 6 6 6 6 6 6 6 7 6 6 7 7 8 8 8 8 8 9 9
6 6 6 6 7 7 8 8 8 7 7 8 7 7 7 7 7 7 7 7 7 7 7 7 8 8 8 7 8 8 8 8 8 8 8 9 9 9 9 9 9 9 9
7 7 7 7 7 8 8 9 9 8 8 8 8 8 8 9 8 8 8 8 8 8 8 8 9 9 9 9 9 9 8 9 9 9 9 10 10 10 10 10 10 10 10
7 7 7 7 7 7 8 9 9 9 9 9 9 9 9 9 9 9 10 10 10 10 10 9 9 9 9 9 9 9 9 9 9 10 10 10 10 10 11 11 11 11 11
8 8 8 8 8 8 8 9 9 9 9 10 9 9 10 10 10 10 10 11 11 11 11 10 10 10 10 10 10 10 10 10 11 11 11 11 11 12 12 12 12 12 12
8 8 8 9 9 9 9 9 9 10 10 10 10 10 11 11 11 11 11 11 12 11 12 12 11 11 11 11 11 11 12 12 13 13 13 13 13 13 13 13 14 13 13
7 7 8 8 8 9 9 9 10 10 10 10 10 10 10 11 11 11 11 11 12 12 12 12 11 11 12 12 13 13 13 12 13 14 14 14 14 14 14 14 14 14 14
7 7 7 8 8 8 9 9 9 9 9 10 10 10 10 10 10 11 11 12 12 13 12 12 12 12 12 13 13 14 14 14 14 14 15 15 14 15 15 15 15 15 15
8 8 8 8 8 9 9 9 9 9 9 10 10 10 10 10 11 11 11 11 12 12 12 12 12 12 13 13 14 14 14 14 14 14 15 15 15 16 16 16 16 16 16
8 8 9 9 9 9 9 9 10 10 10 10 10 10 10 10 10 11 11 11 11 12 12 13 13 14 13 14 14 15 15 15 15 15 15 15 16 16 17 17 17 17 17
9 9 9 9 9 9 9 10 10 11 11 11 11 11 11 10 10 10 10 10 10 11 12 13 14 15 15 15 16 16 16 16 16 16 16 16 16 16 16 17 17 18 18
9 9 8 9 9 9 9 9 10 10 11 11 11 10 10 10 10 11 11 10 11 11 12 13 14 15 15 16 16 16 16 16 17 17 17 16 16 17 17 17 17 18 17
9 9 9 10 10 10 10 10 10 10 10 11 10 10 11 11 11 11 11 12 12 13 13 14 14 15 16 16 17 17 17 17 16 16 16 16 16 17 17 17 18 18 18
10 11 10 11 11 10 10 10 11 11 11 11 12 12 12 12 12 12 12 13 13 14 14 14 15 16 17 17 17 17 17 17 17 16 16 17 17 17 17 18 18 18 18
11 11 11 12 12 11 11 11 11 12 13 13 13 13 14 14 14 14 14 14 14 15 15 15 16 16 17 17 17 17 17 17 16 17 17 17 17 17 17 17 17 17 17
11 12 12 13 13 13 13 14 14 14 14 15 15 15 15 15 15 15 15 15 15 15 16 16 17 17 17 17 17 17 17 17 17 17 17 17 17 17 17 17 17 16 16
11 12 13 14 14 14 15 15 16 16 16 16 16 16 16 16 16 16 16 16 16 16 16 16 17 17 17 17 17 17 17 18 17 17 17 17 17 16 17 17 17 17 17
12 12 13 14 15 15 16 17 17 17 17 17 17 17 17 17 17 17 17 17 17 17 17 17 17 17 17 16 17 17 17 17 18 18 17 17 17 17 17 18 17 17 18
12 13 14 15 16 17 18 18 18 18 17 17 18 17 17 17 17 18 18 18 18 18 17 17 17 17 17 17 17 17 17 18 18 18 18 18 17 17 18 18 18 18 18
13 13 14 15 16 18 18 18 17 17 18 18 17 18 18 18 18 18 18 18 18 18 18 18 17 17 17 17 18 18 18 18 19 18 18 17 17 18 18 19 19 20 19
15 15 15 16 17 18 18 18 18 18 19 19 19 19 19 19 19 19 19 19 19 19 19 18 18 17 17 18 18 18 18 18 18 18 18 18 18 18 18 18 19 20 20
15 16 16 16 17 18 18 18 19 20 20 20 20 20 20 20 20 20 19 19 20 19 19 18 18 18 18 18 18 18 18 18 18 18 19 19 19 19 19 19 19 19 20
Wind_Direction
184 180 178 185 193 193 188 187 188 188 181 183 182 188 198 198 196 195 191 154 156 171 186 195 204 209 224 230 230 231 227 224 225 225 228 231 238 245 254 252 236 232 234
195 191 189 190 195 199 201 205 206 206 208 209 210 211 218 223 212 200 212 211 200 199 207 213 219 219 228 237 235 235 231 223 228 235 237 243 248 251 255 254 248 245 243
200 200 200 202 204 207 212 218 219 219 220 222 222 224 225 227 226 227 231 233 231 229 230 231 230 224 232 235 236 238 235 238 243 250 253 256 254 254 256 256 256 253 251
210 209 210 216 216 218 223 226 227 227 228 231 232 233 234 235 235 239 240 236 234 236 239 239 234 231 239 241 241 245 246 244 248 253 258 260 258 259 263 265 265 265 259
216 216 219 221 221 225 228 231 234 232 233 235 235 236 237 238 239 240 243 238 238 240 244 243 239 240 245 244 245 250 253 249 250 256 259 261 260 261 263 266 266 266 262
220 224 227 226 228 231 234 236 238 237 238 239 239 242 240 241 244 244 246 243 243 245 248 248 245 249 249 249 248 251 255 255 255 263 263 263 263 264 261 263 266 267 264
223 226 230 232 235 239 241 242 243 243 243 242 245 247 245 246 248 246 248 247 250 251 252 252 250 252 254 256 253 252 255 258 257 261 263 261 262 262 262 263 268 268 266
225 227 233 238 239 241 244 244 247 249 249 246 248 248 247 248 249 252 250 250 253 256 258 260 256 257 258 259 256 253 256 258 261 263 264 263 261 259 261 265 268 270 269
232 233 237 241 239 241 245 247 247 248 249 249 249 250 249 250 252 253 254 254 255 257 260 261 258 258 257 260 260 260 261 263 264 265 267 266 263 262 262 265 267 268 268
238 240 241 243 242 242 245 249 249 250 252 252 252 252 252 253 254 254 256 255 256 257 259 259 260 260 260 261 261 264 264 265 265 265 267 267 265 264 264 267 269 269 268
243 243 244 245 245 245 246 250 254 254 255 257 258 258 256 254 255 257 257 257 258 258 258 259 258 259 262 263 262 265 267 270 268 268 269 267 266 266 266 267 270 269 269
245 243 246 248 248 249 250 252 255 257 258 259 261 262 260 259 260 261 261 260 259 258 259 262 261 263 262 263 265 267 268 270 271 269 268 268 266 266 266 267 268 271 271
247 245 249 252 252 255 255 255 256 260 261 261 262 264 262 259 259 261 262 260 260 263 265 265 263 264 265 264 265 268 270 270 269 268 270 269 267 265 266 268 270 271 272
247 246 248 254 256 258 258 258 258 261 264 263 263 263 262 262 259 260 263 264 265 265 267 267 267 268 268 267 270 271 271 270 269 268 269 269 269 267 267 269 271 269 271
248 251 249 250 254 256 257 259 260 261 262 261 261 263 261 261 262 260 266 270 270 271 272 273 272 271 271 270 270 270 269 269 270 268 269 269 269 269 269 269 271 270 270
248 252 253 253 253 253 255 259 262 264 264 261 260 258 258 261 265 266 269 270 272 274 275 275 275 275 274 273 272 270 269 270 271 270 268 267 267 268 269 270 271 270 269
251 253 254 254 256 255 258 262 265 266 265 263 261 260 259 262 266 268 269 271 275 277 277 276 275 275 276 276 275 273 271 271 270 270 270 270 270 270 271 272 272 271 269
253 254 256 256 257 259 263 266 268 265 265 265 265 264 263 263 266 268 270 273 278 280 279 278 277 276 275 275 274 274 274 271 270 270 271 271 271 271 272 273 272 271 269
255 255 258 260 262 264 267 270 271 270 267 265 267 266 265 266 268 271 271 274 278 280 280 280 281 279 276 274 273 273 273 272 270 270 269 270 271 271 272 272 273 273 272
256 260 261 263 265 267 269 272 272 272 271 269 269 269 269 269 269 271 272 275 277 279 281 280 282 281 277 274 272 272 272 273 272 270 269 270 270 270 271 271 273 275 274
257 262 265 267 267 268 270 272 272 272 272 272 272 272 274 272 270 270 273 274 276 279 281 281 281 281 278 276 273 271 272 274 274 272 269 268 269 270 271 272 274 276 275
262 263 266 269 271 271 271 272 271 270 271 271 271 273 273 273 273 272 273 274 277 279 281 281 282 281 280 278 274 273 273 274 274 273 271 268 268 270 271 271 273 274 274
266 268 271 272 272 272 273 272 272 270 271 272 272 273 274 274 274 273 274 274 276 279 280 280 281 281 279 278 275 274 274 275 275 273 272 270 268 268 270 271 271 271 269
267 270 273 276 276 276 274 273 273 273 272 272 273 272 273 274 273 273 273 274 275 277 278 278 279 279 279 278 276 274 275 276 275 273 272 272 270 268 270 271 270 270 271
267 272 277 280 281 279 278 276 274 274 274 272 273 273 273 274 275 275 275 274 275 276 277 276 276 277 279 278 276 275 275 275 274 273 272 272 271 269 269 270 270 270 270
268 272 276 282 284 280 277 277 276 275 274 273 273 273 274 276 277 276 275 274 276 277 277 276 277 277 278 277 276 275 274 274 275 273 273 271 271 270 270 270 270 270 269
Height
5876 5876 5876 5877 5877 5877 5877 5877 5878 5878 5878 5878 5878 5878 5878 5878 5877 5877 5876 5875 5874 5874 5876 5877 5877 5878 5878 5878 5878 5878 5878 5878 5878 5878 5878 5878 5878 5878 5878 5878 5876 5876 5877
5876 5876 5876 5876 5877 5877 5877 5877 5877 5877 5878 5878 5878 5878 5878 5877 5877 5877 5877 5876 5875 5876 5876 5877 5877 5877 5877 5877 5877 5877 5878 5878 5878 5878 5878 5878 5878 5878 5878 5877 5877 5877 5877
5875 5875 5876 5876 5876 5876 5877 5877 5877 5877 5877 5877 5877 5877 5877 5877 5877 5877 5877 5876 5876 5876 5876 5876 5876 5877 5877 5877 5877 5877 5877 5877 5877 5877 5877 5877 5877 5877 5877 5876 5876 5876 5876
5874 5875 5875 5875 5876 5876 5876 5876 5876 5876 5877 5877 5877 5877 5877 5877 5877 5876 5876 5876 5876 5876 5876 5876 5876 5876 5876 5876 5876 5876 5876 5876 5876 5876 5876 5876 5876 5876 5875 5875 5875 5875 5875
5874 5874 5874 5874 5875 5875 5875 5875 5875 5875 5876 5876 5876 5876 5876 5876 5876 5876 5875 5875 5875 5875 5875 5875 5875 5875 5875 5875 5875 5875 5875 5875 5875 5875 5875 5875 5875 5874 5874 5874 5874 5874 5874
5873 5873 5873 5873 5874 5874 5874 5874 5874 5875 5875 5875 5875 5875 5875 5875 5875 5875 5875 5874 5874 5874 5874 5874 5874 5874 5874 5874 5874 5874 5874 5874 5874 5874 5874 5873 5873 5873 5873 5873 5873 5873 5872
5872 5872 5872 5872 5873 5873 5873 5873 5873 5873 5873 5874 5874 5874 5874 5874 5874 5873 5873 5873 5873 5873 5873 5873 5873 5873 5873 5873 5873 5872 5872 5872 5872 5872 5872 5872 5872 5871 5871 5871 5871 5871 5870
5871 5871 5871 5871 5871 5871 5872 5872 5871 5872 5872 5872 5872 5872 5872 5872 5872 5872 5872 5872 5872 5872 5872 5871 5871 5871 5871 5871 5871 5871 5871 5871 5871 5870 5870 5870 5870 5869 5870 5869 5869 5869 5869
5869 5869 5869 5870 5870 5870 5870 5870 5870 5870 5870 5870 5871 5871 5871 5871 5871 5871 5871 5870 5870 5870 5870 5870 5869 5869 5870 5870 5869 5869 5869 5869 5869 5868 5868 5868 5868 5868 5867 5867 5867 5866 5866
5868 5868 5868 5868 5868 5869 5869 5869 5869 5869 5869 5869 5869 5869 5869 5869 5869 5869 5869 5868 5868 5868 5868 5868 5868 5867 5867 5867 5867 5867 5867 5866 5866 5866 5866 5866 5865 5865 5865 5865 5865 5864 5864
5867 5867 5867 5867 5867 5867 5867 5867 5867 5867 5867 5867 5867 5866 5866 5866 5866 5866 5866 5866 5866 5866 5866 5866 5866 5865 5865 5865 5865 5865 5864 5864 5863 5863 5863 5863 5863 5863 5863 5862 5862 5862 5861
5865 5865 5866 5866 5866 5866 5866 5866 5866 5865 5865 5865 5865 5864 5864 5864 5864 5863 5864 5864 5864 5864 5864 5864 5863 5863 5863 5863 5862 5862 5862 5861 5860 5860 5860 5860 5860 5860 5860 5859 5859 5859 5858
5864 5864 5864 5864 5864 5864 5864 5864 5864 5864 5864 5863 5863 5863 5862 5862 5861 5861 5861 5861 5861 5861 5861 5861 5861 5861 5860 5860 5860 5859 5859 5858 5858 5857 5857 5857 5857 5857 5857 5856 5856 5856 5855
5862 5862 5862 5863 5863 5862 5862 5862 5862 5862 5862 5862 5861 5861 5860 5860 5860 5859 5859 5859 5858 5858 5858 5858 5858 5858 5857 5857 5857 5856 5856 5855 5855 5855 5854 5854 5854 5854 5853 5853 5853 5852 5852
5861 5861 5861 5861 5861 5861 5860 5860 5860 5860 5860 5860 5859 5859 5858 5858 5858 5857 5857 5856 5856 5856 5855 5855 5855 5854 5854 5854 5853 5853 5853 5852 5852 5852 5851 5851 5851 5850 5850 5850 5849 5849 5848
5859 5859 5859 5859 5859 5859 5858 5858 5858 5858 5858 5857 5857 5856 5856 5856 5855 5855 5855 5854 5854 5853 5853 5852 5852 5851 5850 5850 5850 5849 5849 5849 5848 5848 5848 5847 5847 5847 5846 5846 5846 5845 5844
5857 5857 5857 5857 5857 5857 5856 5856 5856 5856 5855 5855 5854 5854 5854 5853 5853 5852 5852 5852 5851 5850 5850 5849 5848 5848 5847 5847 5846 5845 5845 5845 5844 5844 5844 5844 5843 5843 5843 5842 5842 5841 5841
5855 5855 5855 5855 5855 5855 5854 5854 5853 5853 5853 5852 5852 5851 5851 5850 5850 5850 5849 5849 5848 5847 5846 5846 5845 5844 5843 5843 5842 5841 5841 5841 5841 5840 5840 5840 5839 5839 5839 5838 5838 5837 5837
5852 5853 5853 5853 5853 5852 5852 5851 5851 5850 5850 5849 5849 5848 5848 5847 5847 5846 5846 5845 5844 5844 5843 5842 5841 5840 5839 5838 5838 5837 5837 5837 5836 5836 5836 5836 5835 5835 5835 5834 5834 5833 5833
5850 5850 5850 5850 5850 5850 5849 5849 5848 5847 5846 5846 5845 5845 5844 5844 5843 5843 5842 5841 5841 5840 5839 5838 5837 5836 5835 5834 5834 5833 5833 5832 5832 5832 5832 5832 5831 5831 5831 5831 5830 5830 5829
5847 5847 5847 5847 5847 5846 5846 5845 5844 5844 5843 5842 5841 5841 5840 5840 5839 5839 5838 5837 5837 5836 5835 5834 5833 5831 5830 5829 5829 5829 5828 5828 5827 5827 5827 5827 5827 5827 5827 5826 5826 5825 5825
5844 5844 5844 5844 5843 5843 5842 5841 5840 5840 5839 5838 5837 5836 5836 5835 5835 5834 5834 5833 5832 5832 5830 5829 5828 5827 5826 5825 5825 5824 5824 5824 5823 5823 5823 5823 5823 5823 5822 5822 5822 5821 5820
5841 5841 5841 5840 5839 5838 5837 5837 5836 5835 5834 5834 5833 5832 5831 5831 5830 5830 5829 5828 5828 5827 5826 5825 5824 5822 5821 5821 5820 5820 5820 5819 5819 5818 5818 5818 5818 5818 5818 5818 5817 5816 5816
5838 5837 5837 5836 5835 5834 5833 5832 5831 5831 5830 5829 5829 5828 5827 5826 5825 5825 5824 5823 5823 5822 5821 5820 5819 5818 5817 5816 5816 5815 5815 5814 5814 5814 5814 5813 5813 5813 5813 5813 5812 5812 5811
5834 5833 5833 5832 5831 5830 5829 5828 5827 5826 5826 5825 5824 5823 5823 5822 5821 5820 5819 5818 5818 5817 5816 5815 5814 5813 5813 5812 5811 5810 5810 5809 5809 5809 5809 5808 5808 5808 5808 5807 5807 5807 5806
5830 5830 5829 5828 5827 5826 5825 5823 5823 5822 5821 5820 5819 5818 5817 5817 5816 5815 5814 5813 5812 5812 5811 5810 5809 5808 5807 5807 5806 5805 5805 5805 5804 5804 5804 5803 5803 5803 5802 5802 5802 5801 5801